Location: Clermont
(50.2608°N, 4.3172°E)
Time: 07:24:27
(UTC+00:00)

Spot 4 - Pass Details

Date: 13 August 2020
Orbit: 704 x 723 km, 98.3° (Epoch: 27 September)

Event Time Altitude Azimuth Distance (km) Brightness Sun altitude
Exits shadow 22:03:37 42° 107° (ESE) 1,014 4.3 -21.5°
Maximum altitude 22:04:38 50° 69° (ENE) 913 4.3 -21.6°
Drops below altitude 10° 22:09:19 10° 355° (N) 2,214 7.4 -21.9°
Sets 22:11:39 0° 350° (N) 3,141 8.5 -22.1°
